Temp
7 7 7 6 6 6 6 6 6 6 7 7 8 8 8 9 9 9 9 9 8 8 8 7 7 7 5 6 6 6 6 5 5 4 4 4 4 4 3 2 0 -0 0
6 6 6 6 5 5 5 5 6 6 6 6 7 7 8 8 8 8 8 8 8 8 6 5 5 4 4 4 4 5 4 4 4 3 3 3 2 2 2 0 -1 -1 -1
4 4 5 5 5 5 5 5 5 5 5 6 6 6 7 7 7 7 7 7 7 7 7 6 5 4 3 3 3 3 3 4 3 2 2 1 1 1 1 -0 -0 -0 -1
3 3 3 4 4 4 4 4 4 5 5 5 5 5 5 6 6 6 6 6 5 5 4 3 3 3 3 3 4 4 3 2 1 0 0 -0 0 -0 -0 -1 -1 -2 -2
1 1 2 2 3 3 3 4 4 4 4 4 4 4 5 5 5 5 5 5 4 3 3 2 2 2 2 2 1 1 1 1 0 -0 -0 -1 -1 -1 -1 -2 -2 -2 -2
-0 -0 -0 -0 0 2 3 3 3 3 3 3 3 4 4 4 4 4 4 3 3 3 2 1 1 0 0 -0 -0 -1 -0 -0 -1 -1 -1 -2 -2 -2 -2 -3 -3 -3 -4
-0 -0 -1 -1 -0 1 2 2 2 3 3 3 3 4 4 3 3 3 3 2 2 2 1 0 -0 -1 -1 -1 -1 -1 -1 -1 -1 -2 -2 -3 -3 -3 -4 -4 -4 -5 -5
-0 -0 -1 -1 -0 -0 1 1 2 3 2 3 3 3 2 3 3 2 2 2 2 1 1 0 -0 -1 -1 -1 -1 -2 -2 -2 -3 -3 -3 -4 -4 -5 -5 -5 -5 -6 -5
-0 -1 0 -1 -1 -0 0 2 2 2 2 2 2 2 2 2 2 1 2 1 1 1 0 -0 -1 -2 -2 -2 -3 -3 -3 -3 -4 -5 -5 -6 -6 -6 -7 -6 -6 -6 -6
1 2 0 -0 -1 0 1 1 1 1 2 2 2 1 1 1 1 1 1 0 0 -0 -1 -2 -2 -3 -3 -4 -3 -4 -4 -5 -5 -6 -7 -7 -7 -7 -7 -7 -7 -8 -8
3 2 1 1 1 1 1 1 1 1 1 1 1 1 1 1 1 0 0 -0 -1 -2 -2 -3 -4 -4 -4 -5 -5 -5 -6 -6 -6 -6 -6 -6 -6 -7 -7 -7 -7 -8 -8
3 2 2 2 2 1 1 1 1 1 1 1 1 1 1 0 0 -0 -1 -1 -2 -3 -3 -4 -5 -5 -5 -5 -5 -6 -6 -6 -6 -6 -6 -7 -7 -7 -7 -7 -7 -7 -7
3 2 2 2 1 1 2 1 1 1 1 1 1 1 0 -0 -1 -1 -2 -2 -3 -3 -4 -5 -5 -6 -6 -6 -6 -7 -6 -7 -7 -7 -7 -7 -7 -7 -7 -7 -7 -7 -7
3 3 2 2 2 2 2 1 1 1 1 1 0 0 -0 -1 -1 -1 -2 -3 -4 -5 -5 -5 -6 -6 -6 -7 -7 -7 -7 -7 -7 -7 -7 -7 -7 -7 -7 -7 -6 -6 -6
2 2 2 2 2 1 1 1 1 1 1 1 0 -0 -0 -1 -1 -2 -2 -3 -4 -5 -5 -5 -6 -6 -7 -7 -7 -7 -7 -7 -8 -8 -7 -7 -7 -7 -7 -7 -7 -7 -7
2 2 2 2 2 1 1 1 1 1 1 0 0 -0 -1 -1 -1 -2 -3 -4 -5 -6 -5 -5 -6 -6 -7 -7 -7 -7 -7 -8 -8 -7 -7 -7 -7 -7 -7 -7 -7 -7 -8
3 2 2 2 2 1 1 1 1 1 1 0 -0 -0 -1 -1 -1 -2 -3 -4 -4 -5 -5 -6 -6 -6 -6 -7 -7 -7 -7 -7 -7 -7 -7 -7 -7 -7 -7 -7 -7 -8 -7
3 2 2 2 1 1 1 1 0 0 0 -0 -0 -0 -1 -1 -2 -2 -3 -4 -4 -5 -5 -6 -6 -6 -6 -6 -7 -7 -7 -7 -7 -7 -7 -7 -7 -7 -8 -8 -8 -8 -8
3 2 2 2 1 1 0 0 0 -0 -0 -0 -1 -1 -1 -2 -2 -2 -3 -3 -4 -5 -5 -5 -5 -5 -6 -6 -6 -6 -7 -7 -7 -7 -7 -7 -8 -8 -7 -8 -8 -8 -9
2 2 2 1 1 0 0 -0 -0 -0 -0 -1 -1 -1 -2 -2 -2 -2 -3 -3 -4 -4 -5 -5 -5 -5 -6 -6 -6 -6 -6 -7 -7 -7 -7 -7 -8 -8 -8 -8 -8 -8 -8
2 2 1 -0 -0 -1 -1 -0 -1 -1 -1 -1 -1 -2 -2 -2 -2 -2 -3 -3 -4 -4 -5 -5 -5 -5 -6 -6 -6 -6 -6 -6 -7 -7 -7 -7 -8 -8 -8 -8 -8 -8 -9
1 1 0 0 -0 -1 -2 -3 -1 -1 -1 -1 -2 -2 -2 -2 -2 -3 -3 -3 -4 -4 -4 -4 -5 -5 -5 -6 -6 -6 -6 -6 -7 -7 -7 -7 -8 -8 -8 -9 -9 -9 -9
1 -0 -0 -0 -1 -1 -2 -2 -3 -2 -2 -2 -2 -2 -2 -2 -3 -3 -3 -4 -4 -4 -5 -5 -5 -5 -6 -6 -7 -7 -7 -7 -7 -8 -8 -8 -8 -8 -9 -9 -9 -9 -9
0 -0 -1 -1 -1 -2 -2 -3 -3 -4 -3 -2 -2 -2 -2 -3 -3 -3 -3 -4 -4 -4 -4 -5 -5 -5 -5 -6 -7 -7 -8 -8 -8 -9 -9 -9 -9 -9 -10 -10 -10 -10 -10
-1 -1 -1 -1 -2 -2 -2 -3 -3 -3 -4 -3 -2 -2 -3 -3 -3 -3 -4 -4 -4 -4 -4 -5 -5 -6 -6 -6 -7 -7 -8 -9 -9 -10 -10 -10 -10 -10 -10 -10 -10 -9 -9
-2 -2 -2 -2 -2 -3 -3 -3 -3 -3 -4 -4 -3 -3 -3 -3 -3 -3 -4 -4 -4 -5 -5 -5 -6 -6 -7 -7 -7 -8 -9 -9 -10 -11 -11 -11 -11 -10 -10 -10 -9 -9 -9
Height
1496 1496 1496 1496 1496 1495 1495 1495 1494 1494 1493 1492 1491 1490 1489 1489 1489 1489 1489 1489 1489 1488 1488 1488 1488 1488 1487 1487 1487 1487 1487 1487 1485 1483 1483 1481 1480 1479 1476 1477 1478 1479 1480
1492 1493 1493 1493 1493 1493 1492 1492 1492 1491 1490 1489 1489 1488 1487 1486 1486 1486 1486 1485 1485 1484 1484 1484 1483 1483 1483 1483 1483 1483 1483 1482 1481 1480 1478 1476 1474 1473 1472 1473 1473 1475 1478
1488 1489 1489 1489 1489 1490 1489 1489 1489 1488 1487 1486 1486 1486 1485 1484 1483 1483 1482 1482 1481 1480 1481 1480 1479 1478 1479 1479 1479 1478 1478 1477 1475 1474 1472 1472 1470 1470 1469 1469 1471 1471 1473
1484 1485 1485 1485 1486 1486 1486 1486 1486 1485 1485 1484 1484 1483 1482 1481 1480 1479 1478 1478 1479 1479 1478 1478 1477 1476 1477 1476 1475 1473 1472 1470 1470 1470 1469 1469 1468 1468 1467 1467 1468 1469 1469
1480 1481 1481 1482 1482 1483 1483 1483 1483 1483 1483 1482 1482 1481 1480 1479 1478 1477 1476 1476 1477 1477 1476 1476 1475 1475 1474 1473 1471 1470 1469 1468 1467 1468 1468 1468 1467 1466 1466 1466 1466 1466 1466
1478 1478 1479 1479 1479 1479 1479 1481 1480 1481 1482 1482 1481 1480 1480 1479 1478 1477 1476 1475 1475 1476 1476 1476 1475 1475 1473 1473 1471 1470 1468 1468 1468 1467 1466 1465 1465 1465 1464 1464 1464 1463 1464
1476 1476 1476 1476 1477 1477 1477 1479 1479 1480 1480 1480 1481 1481 1481 1479 1479 1478 1477 1477 1476 1476 1476 1476 1475 1474 1473 1472 1471 1470 1468 1467 1466 1466 1464 1464 1463 1462 1462 1461 1461 1460 1460
1474 1474 1475 1476 1477 1477 1477 1478 1478 1479 1480 1481 1481 1481 1481 1480 1479 1479 1478 1478 1477 1476 1475 1475 1474 1473 1472 1471 1470 1468 1467 1466 1464 1463 1462 1462 1461 1460 1460 1459 1458 1457 1456
1471 1473 1474 1476 1477 1477 1477 1477 1477 1479 1480 1482 1481 1481 1482 1481 1481 1480 1479 1478 1477 1475 1474 1474 1473 1472 1470 1469 1468 1466 1465 1463 1462 1461 1460 1460 1459 1459 1458 1456 1455 1454 1453
1469 1470 1472 1474 1476 1477 1478 1478 1479 1480 1482 1482 1481 1482 1482 1482 1480 1479 1479 1478 1477 1475 1474 1473 1471 1470 1468 1466 1465 1463 1462 1461 1460 1459 1458 1456 1456 1455 1454 1452 1452 1451 1451
1469 1470 1472 1474 1476 1477 1479 1480 1481 1481 1482 1482 1481 1482 1481 1481 1480 1479 1478 1477 1476 1474 1473 1471 1469 1468 1466 1464 1462 1461 1459 1458 1457 1455 1454 1453 1452 1451 1450 1450 1449 1449 1449
1469 1470 1472 1474 1476 1477 1478 1481 1481 1480 1481 1481 1482 1481 1481 1480 1479 1478 1476 1475 1474 1472 1470 1468 1466 1465 1463 1461 1460 1458 1457 1456 1454 1452 1451 1450 1450 1449 1448 1448 1447 1447 1446
1468 1470 1472 1474 1476 1477 1477 1481 1480 1480 1481 1481 1481 1480 1479 1479 1477 1476 1474 1472 1470 1469 1467 1465 1463 1462 1460 1459 1457 1456 1454 1453 1451 1450 1449 1449 1448 1447 1446 1445 1444 1443 1442
1468 1470 1472 1473 1475 1475 1477 1478 1479 1479 1479 1479 1480 1478 1477 1477 1475 1474 1472 1470 1468 1466 1464 1462 1460 1459 1457 1455 1454 1453 1451 1450 1449 1448 1447 1446 1445 1444 1443 1442 1440 1439 1437
1466 1469 1470 1472 1473 1474 1475 1476 1477 1477 1477 1477 1477 1477 1475 1474 1472 1471 1469 1467 1465 1463 1460 1459 1458 1456 1454 1453 1452 1450 1449 1447 1446 1445 1444 1443 1441 1440 1439 1438 1437 1435 1433
1464 1466 1468 1469 1470 1472 1473 1474 1474 1474 1474 1474 1474 1474 1473 1471 1469 1468 1466 1464 1462 1460 1458 1456 1455 1453 1452 1450 1449 1447 1446 1444 1443 1442 1441 1439 1437 1436 1435 1434 1433 1431 1429
1461 1463 1465 1466 1467 1469 1470 1470 1470 1471 1471 1471 1471 1471 1470 1468 1466 1464 1463 1461 1459 1457 1455 1453 1451 1450 1448 1447 1445 1444 1443 1442 1440 1438 1437 1435 1434 1432 1431 1429 1428 1426 1424
1458 1460 1461 1462 1464 1465 1466 1466 1467 1467 1468 1468 1468 1467 1466 1465 1463 1461 1459 1457 1456 1454 1452 1450 1448 1446 1444 1443 1441 1440 1439 1438 1436 1434 1433 1431 1430 1428 1425 1424 1422 1420 1418
1453 1454 1456 1458 1459 1461 1461 1462 1463 1463 1464 1464 1464 1463 1462 1461 1459 1457 1455 1454 1452 1451 1449 1446 1444 1443 1441 1439 1437 1436 1434 1433 1431 1429 1428 1426 1425 1423 1420 1418 1416 1414 1412
1446 1448 1451 1453 1454 1455 1456 1457 1458 1458 1459 1460 1460 1460 1458 1458 1456 1454 1452 1450 1449 1447 1445 1443 1441 1439 1437 1435 1433 1432 1430 1428 1426 1424 1422 1420 1419 1416 1413 1411 1409 1406 1404
1440 1441 1443 1444 1447 1449 1451 1452 1453 1453 1454 1455 1455 1455 1454 1453 1452 1450 1449 1447 1445 1443 1442 1439 1438 1436 1434 1431 1429 1427 1425 1423 1421 1419 1416 1414 1412 1410 1407 1405 1402 1399 1396
1433 1435 1435 1436 1437 1440 1442 1445 1447 1448 1449 1450 1450 1450 1449 1448 1447 1446 1444 1443 1441 1439 1437 1436 1434 1432 1430 1427 1424 1422 1419 1417 1415 1412 1410 1408 1405 1403 1400 1397 1394 1391 1389
1426 1427 1428 1429 1431 1433 1435 1437 1439 1442 1443 1444 1445 1445 1444 1444 1442 1441 1440 1439 1437 1435 1433 1431 1429 1427 1425 1422 1419 1416 1413 1410 1408 1405 1402 1400 1397 1394 1392 1389 1386 1382 1380
1419 1419 1420 1421 1423 1424 1426 1430 1432 1434 1437 1438 1439 1440 1440 1439 1438 1436 1435 1433 1432 1430 1429 1426 1424 1421 1418 1416 1413 1410 1407 1404 1401 1398 1396 1392 1389 1387 1384 1380 1376 1373 1370
1412 1412 1413 1414 1416 1418 1421 1423 1426 1428 1430 1433 1434 1435 1434 1434 1432 1431 1430 1428 1427 1425 1423 1421 1418 1415 1412 1409 1406 1403 1400 1397 1394 1391 1388 1384 1380 1378 1374 1371 1367 1364 1361
1405 1406 1408 1409 1410 1412 1414 1417 1419 1421 1423 1426 1429 1429 1429 1428 1427 1426 1425 1423 1421 1419 1417 1414 1412 1409 1406 1403 1400 1397 1393 1390 1387 1384 1381 1378 1374 1370 1367 1363 1358 1354 1349
Wind_Speed
18 16 14 13 12 12 12 13 13 13 11 9 7 7 8 9 11 13 15 16 16 16 17 19 18 16 17 15 15 16 19 18 21 25 25 26 26 26 24 23 21 25 30
15 15 13 12 12 12 12 13 14 13 11 10 8 8 7 6 6 6 7 10 12 13 14 11 10 12 14 15 16 18 19 22 21 25 27 26 23 20 21 19 21 22 27
16 15 13 12 12 11 12 12 12 11 11 10 10 10 10 9 9 9 10 10 11 10 10 11 14 14 13 15 16 18 19 20 20 21 20 20 17 15 16 18 20 20 22
16 14 13 12 12 11 10 9 8 7 6 7 7 7 7 7 7 7 7 7 7 8 9 10 9 9 10 12 13 13 14 13 12 11 11 11 11 11 12 13 16 17 18
12 12 12 12 12 11 9 8 7 6 5 4 3 2 1 2 2 2 2 3 3 5 7 5 7 7 6 6 6 8 8 7 7 7 7 8 8 9 9 10 11 14 15
10 9 9 9 10 10 9 8 6 5 5 3 1 1 2 3 5 5 4 4 4 4 5 5 6 6 6 7 7 8 9 8 9 9 9 9 9 9 10 11 12 13 13
7 7 6 6 6 6 7 6 6 5 3 3 3 2 2 6 8 7 8 7 7 6 6 6 6 8 8 8 9 9 10 11 11 10 11 10 10 10 11 11 12 13 15
7 6 5 5 6 6 7 7 6 5 5 5 6 8 8 8 7 8 7 6 6 6 7 9 9 9 9 9 10 10 10 10 11 11 10 10 10 11 12 13 15 16 18
8 7 7 8 8 7 8 8 8 7 8 8 7 7 7 6 7 7 8 8 9 9 9 10 10 11 12 12 12 11 11 11 11 10 10 10 10 11 13 16 18 16 16
8 8 9 10 9 9 9 10 10 9 7 7 7 5 5 6 7 7 8 8 9 9 10 11 12 13 13 14 13 13 12 12 11 11 13 15 16 16 16 16 15 14 12
9 10 11 11 12 12 11 11 9 9 7 5 4 4 5 6 7 8 8 9 10 10 10 10 10 11 12 12 14 13 13 14 13 14 13 12 11 10 9 9 9 10 12
12 13 13 13 13 12 10 9 8 6 4 2 0 2 4 6 8 9 11 12 12 11 12 12 12 11 12 12 12 11 12 13 13 12 11 10 9 8 9 10 11 13 15
13 13 13 13 12 11 9 8 6 4 3 2 3 3 5 7 9 11 13 14 14 13 13 13 12 12 11 11 10 11 12 12 11 11 10 9 10 11 11 13 14 16 18
14 14 14 13 12 10 9 8 7 6 4 4 5 6 7 8 10 12 13 14 14 14 14 13 13 13 13 12 12 12 12 12 11 10 11 12 13 14 15 14 14 15 17
14 15 14 13 12 11 11 10 9 8 7 6 7 8 9 9 11 14 14 15 16 15 16 14 14 14 13 13 13 13 13 13 13 13 14 16 14 14 14 15 15 16 17
17 17 16 14 14 14 13 12 10 10 9 8 9 9 10 11 13 14 15 16 15 15 15 15 15 14 14 14 14 14 14 14 14 15 16 16 16 16 17 17 16 17 20
19 17 17 17 16 16 15 13 12 11 11 10 11 11 11 12 13 14 15 16 16 15 15 15 15 15 15 15 15 16 15 15 16 17 17 17 18 19 20 20 20 20 23
20 19 20 18 18 17 16 15 15 15 14 12 13 13 13 14 14 15 16 16 16 16 16 16 16 16 16 16 16 17 16 17 18 19 20 20 20 21 23 24 24 25 26
22 23 23 20 19 18 18 18 18 17 16 14 14 14 14 15 15 16 16 16 16 15 15 16 16 16 16 17 18 18 19 19 19 20 21 21 21 23 25 26 27 27 28
25 25 24 23 22 22 21 21 20 18 18 17 16 15 15 16 15 15 16 16 16 15 15 16 16 17 17 18 19 20 21 21 21 21 22 23 24 25 27 27 28 29 30
27 27 28 27 26 25 23 22 20 19 19 18 17 16 16 16 15 16 15 16 15 15 15 16 15 16 17 19 20 21 22 22 22 22 23 24 25 26 26 27 29 30 31
26 28 30 31 32 30 27 24 22 21 20 19 17 17 17 18 17 16 16 17 15 16 16 16 16 17 18 20 21 23 24 24 24 23 25 25 26 27 28 29 29 29 29
25 28 30 31 30 30 27 26 25 21 20 19 18 18 18 18 18 18 17 17 16 16 16 19 20 21 20 21 22 24 26 26 26 26 27 28 28 29 29 30 30 32 33
24 27 28 29 30 32 28 26 29 26 20 20 19 18 18 18 18 18 18 18 17 17 18 20 22 23 23 23 23 24 25 25 26 26 26 28 29 30 30 32 33 34 35
24 24 26 28 28 30 27 26 28 26 20 19 18 19 18 18 18 18 18 18 18 19 20 21 23 23 24 24 25 25 26 26 26 26 27 28 30 31 32 32 32 34 36
23 21 20 23 24 24 24 25 25 28 24 18 19 18 17 17 18 18 18 19 19 21 22 23 23 23 24 24 24 25 25 26 26 24 25 28 28 28 30 35 38 41 44
Wind_Direction
282 280 279 276 269 267 268 276 284 289 281 287 294 291 285 281 278 274 273 274 276 279 280 276 273 280 284 279 276 278 277 276 281 282 290 291 291 295 289 283 268 251 239
277 271 266 262 261 260 264 271 283 285 282 280 282 283 285 284 282 285 290 293 290 286 279 281 282 280 282 285 285 281 283 284 287 291 288 285 286 287 284 269 264 257 249
276 266 260 256 257 259 263 269 278 280 277 276 275 274 273 274 275 277 282 287 291 290 291 295 297 296 295 290 292 291 293 293 289 282 285 288 292 289 282 279 272 266 263
268 255 251 253 255 255 256 258 262 267 270 274 272 272 274 271 271 280 292 299 298 303 309 308 309 303 301 296 289 290 291 299 296 296 293 288 291 288 282 276 271 268 268
251 247 247 249 249 244 242 242 249 258 271 270 260 272 349 358 339 328 307 306 315 319 323 317 306 307 315 313 318 322 326 321 311 303 297 297 298 297 292 283 275 272 270
248 251 257 257 255 238 231 234 236 242 238 229 206 78 75 67 52 49 56 51 39 27 22 14 7 356 350 345 336 337 316 307 305 301 299 295 294 290 286 283 280 279 284
235 237 247 247 227 210 200 201 204 205 187 161 146 133 108 93 78 70 68 54 44 29 12 358 351 339 332 325 321 314 308 306 302 296 291 288 286 284 282 281 282 282 283
220 226 222 204 197 189 184 179 171 158 151 146 130 113 93 89 80 64 53 37 24 14 2 354 345 336 327 326 318 313 309 305 300 297 296 293 291 289 288 290 291 290 289
220 224 215 205 195 182 177 162 150 144 137 131 112 95 83 67 54 35 18 8 359 352 342 333 327 323 319 319 317 313 309 304 298 296 292 287 285 286 291 291 292 297 300
208 200 192 182 180 173 154 146 144 140 137 120 103 81 54 34 23 11 358 348 339 333 327 321 317 315 316 314 313 314 313 306 299 292 289 288 287 286 284 284 287 290 295
176 172 169 165 162 155 155 151 149 140 135 116 90 52 20 4 356 349 344 337 331 326 320 314 310 308 307 308 309 314 313 308 308 306 305 299 293 289 285 283 283 282 282
167 162 158 158 158 159 159 160 158 150 147 135 43 3 344 339 336 336 337 336 331 324 320 314 311 309 309 309 310 309 302 304 307 306 303 300 297 292 289 285 283 283 284
176 172 171 172 172 172 167 181 181 184 204 242 288 318 324 326 328 330 329 326 324 322 319 318 318 315 308 305 302 302 307 305 306 304 302 297 295 291 288 286 283 284 286
192 187 186 186 187 188 194 203 211 223 240 270 289 304 311 314 319 321 320 319 319 317 316 314 315 315 311 309 309 309 307 304 301 298 298 298 295 292 292 292 291 291 292
201 200 200 202 205 210 214 219 227 237 252 268 285 293 301 309 316 319 320 320 318 316 314 315 313 310 307 304 304 305 303 298 294 293 296 297 294 294 293 295 296 298 298
214 213 214 217 218 222 225 231 236 244 255 266 279 291 300 310 318 319 316 313 310 305 306 310 307 305 305 305 304 302 301 296 293 293 297 300 297 295 294 295 296 299 301
223 224 226 226 227 231 235 239 245 249 258 269 279 290 300 309 315 316 315 314 309 305 305 305 305 305 304 302 302 299 299 294 292 293 294 299 300 300 297 296 297 298 299
233 230 232 235 236 238 241 245 249 254 261 268 277 288 298 307 312 314 316 313 307 303 301 301 302 303 302 300 298 297 296 295 293 293 294 296 298 297 296 297 299 301 303
239 236 238 238 239 242 243 245 250 255 261 266 272 282 292 300 309 312 310 308 304 300 297 297 298 299 299 297 297 296 297 298 296 295 295 296 296 295 294 297 299 300 301
243 243 242 242 241 243 244 247 249 254 260 265 271 278 284 292 300 301 303 303 303 301 297 296 297 297 297 296 295 296 296 296 296 296 297 296 295 292 293 297 298 299 299
249 246 241 239 240 241 247 249 252 256 259 263 269 275 283 289 295 295 299 299 300 301 300 300 301 298 296 296 297 297 297 298 299 299 296 293 293 293 295 295 296 298 299
249 248 247 246 244 244 235 237 248 253 257 262 268 273 281 289 295 295 297 297 299 301 301 302 303 301 300 298 297 297 298 299 300 299 296 296 295 295 297 297 298 299 300
248 246 246 249 248 242 238 239 234 247 257 261 266 270 277 285 289 292 294 294 296 298 299 302 304 305 303 300 299 299 299 301 300 299 299 298 298 299 300 300 301 300 301
251 250 250 248 246 244 243 241 237 234 243 257 262 269 276 282 287 290 292 293 296 297 299 300 303 304 303 301 300 300 299 299 298 299 299 297 297 299 299 299 299 301 303
254 253 250 248 247 247 243 245 246 236 231 251 263 268 275 281 288 289 288 292 296 297 297 298 301 302 302 302 303 302 300 298 299 300 299 299 300 302 302 302 304 305 304
255 257 257 252 247 245 245 247 244 233 232 239 260 266 275 283 289 288 288 291 296 297 296 298 301 301 301 302 303 302 302 301 299 301 303 298 295 296 300 302 305 306 306